Beverly, MA

6:53 AM EDT on October 20, 2017 (GMT -0400)
Beverly Municipal

Weather History for KBVY - April, 2014

Change the Weather History Date:

Monday, April 14, 2014

  Actual Average Record
Temperature  
Mean Temperature 58 °F -  
Max Temperature 79 °F 55 °F 104 °F (1974)
Min Temperature 39 °F 34 °F 25 °F (2003)
Degree Days  
Heating Degree Days 6    
Growing Degree Days 8 (Base 50)    
Moisture  
Dew Point 48 °F    
Average Humidity 65    
Maximum Humidity 93    
Minimum Humidity 41    
Precipitation  
Precipitation 0.00 in - - ()
Sea Level Pressure  
Sea Level Pressure 29.92 in    
Wind  
Wind Speed 10 mph (SSW)    
Max Wind Speed 30 mph    
Max Gust Speed 45 mph    
Visibility 10 miles    
Events      
Averages and records for this station are not official NWS values.
T = Trace of Precipitation, MM = Missing Value Source: NWS Daily Summary

Daily Weather History Graph

Daily Weather History Graph

Search for Another Location

Airport or City:

Trip Planner

Search our weather history database for the weather conditions in past years. The results will help you decide how hot, cold, wet, or windy it might be!

Date:

Astronomy

Apr. 14, 2014 Rise Set
Actual Time 6:04 AM EDT 7:24 PM EDT
Civil Twilight 5:34 AM EDT 7:53 PM EDT
Nautical Twilight 4:59 AM EDT 8:29 PM EDT
Astronomical Twilight 4:22 AM EDT 9:06 PM EDT
Moon 6:59 PM EDT (4/14) 5:35 AM EDT (4/14)
Length of Visible Light 14h 18m
Length of Day
13h 20m
Full, 100% of the Moon is Illuminated
Apr 14
Full
Apr 15
Full
Apr 22
Last Quarter
Apr 29
New
May 6
First Quarter

Hourly Weather History & Observations

Time (EDT) Temp. Windchill Dew Point Humidity Pressure Visibility Wind Dir Wind Speed Gust Speed Precip Events Conditions
12:53 AM 42.1 °F 40.2 °F 37.9 °F 85% 30.01 in 10.0 mi North 3.5 mph - N/A   Clear
1:53 AM 41.0 °F - 37.9 °F 89% 30.00 in 10.0 mi Calm Calm - N/A   Clear
2:53 AM 42.1 °F - 39.0 °F 89% 29.99 in 10.0 mi Calm Calm - N/A   Clear
3:53 AM 42.1 °F - 39.0 °F 89% 29.98 in 10.0 mi Calm Calm - N/A   Clear
4:53 AM 41.0 °F - 37.4 °F 87% 29.98 in 10.0 mi Calm Calm - N/A   Clear
5:53 AM 39.9 °F - 37.9 °F 93% 29.96 in 10.0 mi Calm Calm - N/A   Clear
6:53 AM 44.6 °F 43.1 °F 39.2 °F 81% 29.97 in 10.0 mi SE 3.5 mph - N/A   Clear
7:53 AM 62.6 °F - 53.6 °F 72% 29.97 in 10.0 mi South 12.7 mph 20.7 mph N/A   Clear
8:53 AM 64.9 °F - 53.1 °F 65% 29.95 in 10.0 mi South 11.5 mph 23.0 mph N/A   Clear
9:53 AM 70.0 °F - 54.0 °F 57% 29.95 in 10.0 mi SW 18.4 mph 28.8 mph N/A   Clear
10:53 AM 73.9 °F - 54.0 °F 50% 29.93 in 10.0 mi SW 24.2 mph 31.1 mph N/A   Clear
11:53 AM 75.0 °F - 53.1 °F 46% 29.92 in 10.0 mi SSW 21.9 mph 31.1 mph N/A   Scattered Clouds
12:53 PM 78.1 °F - 53.1 °F 42% 29.90 in 10.0 mi SSW 18.4 mph 33.4 mph N/A   Scattered Clouds
1:53 PM 77.0 °F - 51.8 °F 41% 29.90 in 10.0 mi SSW 21.9 mph 33.4 mph N/A   Mostly Cloudy
2:53 PM 73.0 °F - 48.9 °F 42% 29.88 in 10.0 mi SW 29.9 mph 43.7 mph N/A   Mostly Cloudy
3:53 PM 73.0 °F - 51.1 °F 46% 29.88 in 10.0 mi SW 26.5 mph 39.1 mph N/A   Clear
4:53 PM 71.6 °F - 50.0 °F 46% 29.88 in 10.0 mi SSW 19.6 mph 44.9 mph N/A   Clear
5:53 PM 70.0 °F - 50.0 °F 49% 29.86 in 10.0 mi SSW 23.0 mph 40.3 mph N/A   Clear
6:53 PM 68.0 °F - 51.1 °F 55% 29.86 in 10.0 mi SW 25.3 mph 42.6 mph N/A   Clear
7:53 PM 66.9 °F - 51.1 °F 57% 29.87 in 10.0 mi SSW 24.2 mph 41.4 mph N/A   Clear
8:53 PM 64.9 °F - 51.1 °F 61% 29.88 in 10.0 mi SSW 19.6 mph 35.7 mph N/A   Clear
9:53 PM 63.0 °F - 52.0 °F 67% 29.89 in 10.0 mi SW 20.7 mph 29.9 mph N/A   Clear
10:53 PM 62.1 °F - 53.1 °F 72% 29.88 in 10.0 mi SSW 18.4 mph 31.1 mph N/A   Clear
11:53 PM 62.1 °F - 54.0 °F 75% 29.88 in 10.0 mi SSW 16.1 mph 23.0 mph N/A   Mostly Cloudy